Regional Weather Roundup
Issued by NWS Jackson, KY

Home | Current Version | Previous Version | Text Only | Print | Product List | Glossary Off
Versions: 1 2 3 4 5 6 7 8 9 10 11 12 13 14 15 16 17 18 19 20 21 22 23 24 25 26 27 28 29 30 31 32 33 34 35 36 37 38 39 40 41 42 43 44 45 46 47 48 49 50

130
ASUS43 KJKL 010510
RWRJKL

EAST KENTUCKY HOURLY WEATHER ROUNDUP
NATIONAL WEATHER SERVICE JACKSON KY
100 AM EDT SAT OCT 01 2016

NOTE: "FAIR" INDICATES FEW OR NO CLOUDS BELOW 12,000 FEET WITH
NO SIGNIFICANT WEATHER AND/OR OBSTRUCTIONS TO VISIBILITY.

* THESE REPORTS ARE NOT UNDER NWS QUALITY CONTROL AND MAY NOT
  REPORT WEATHER SUCH AS PRECIPITATION AND FOG.

KYZ079-080-083-085-087-088-110-112-115-119-120-010600
...EASTERN KENTUCKY...

CITY           SKY/WX    TMP DP  RH WIND       PRES   REMARKS
JACKSON        CLEAR     53  49  86 CALM      30.06F
LONDON         CLEAR     51  48  89 CALM      30.06S
SOMERSET*      CLEAR     52  52 100 CALM      30.07R
MONTICELLO*    MOCLDY    53  52  96 NE8       30.07S
WILLIAMSBURG*  PTCLDY    50  50 100 CALM      30.07S
MIDDLESBORO*   PTCLDY    49  49 100 CALM      30.09S
HARLAN APT*    CLOUDY    50  50 100 CALM      30.08S VSB 1/2
PIKE CO APT*     N/A     55  55 100 CALM      30.07S
MOREHEAD APT*  CLOUDY    54  52  94 CALM      30.07S
ASHLAND*       CLOUDY    55  54  94 S3        30.05R VSB 1/2
$$

KYZ035-036-041-042-044-050-067-078-099-010600
...CENTRAL KENTUCKY...

CITY           SKY/WX    TMP DP  RH WIND       PRES   REMARKS
MT STERLING*   CLOUDY    55  50  82 SE6       30.06S
FLEMING/MASON* CLOUDY    55  52  88 SE3       30.06S
DANVILLE*      MOCLDY    54  52  94 SW3       30.05S
LEXINGTON      MOCLDY    57  53  86 S6        30.03F
FRANKFORT      CLOUDY    57  53  86 CALM      30.02S
LOUISVILLE     CLOUDY    56  54  93 S5        30.02R
LEBANON*       CLOUDY    57  55  94 S6        30.04R FOG
GLASGOW*       CLOUDY    57  57 100 CALM      30.03S
BOWLING GREEN  CLOUDY    58  56  93 S5        30.03S
$$

KYZ091>093-OHZ055-061-077-WVZ005-015-034-035-042-010600
...SOUTHERN OHIO/WEST VIRGINIA...

CITY           SKY/WX    TMP DP  RH WIND       PRES   REMARKS
COVINGTON      CLOUDY    57  54  89 S3        30.03S
COLUMBUS       CLOUDY    61  61 100 S5        30.04R
DAYTON         MOCLDY    55  54  96 SE5       30.04R
WILMINGTON     CLEAR     51  50  96 SW5       30.04R
HUNTINGTON     CLOUDY    54  53  97 CALM      30.06R FOG
CHARLESTON     CLOUDY    59  57  93 CALM      30.06S FOG
PINEVILLE*     CLOUDY    58  55  91 MISG      30.13S FOG
BECKLEY        CLOUDY    56  55  97 CALM      30.10R
BLUEFIELD      MOCLDY    54  53  97 CALM      30.11S FOG
LOGAN CO APT*  FOG       55  55 100 CALM      30.08R VSB<1/4
$$

VAZ002-007-008-TNZ017-027-036-066-071-010600
...SOUTHWEST VIRGINIA/EAST TENNESSEE...

CITY           SKY/WX    TMP DP  RH WIND       PRES   REMARKS
WISE*          CLOUDY    55  54  94 CALM      30.10F
JONESVILLE*      N/A     46  46 100 CALM      30.10S
ABINGDON*      MOCLDY    55  55 100 CALM      30.09S FOG
BRISTOL        CLOUDY    55  52  89 CALM      30.07S
MORRISTOWN*    CLEAR     52  48  87 CALM      30.06S
SEVIERVILLE*   CLEAR     50  46  87 CALM      30.07S
KNOXVILLE      CLEAR     55  48  77 S3        30.06S
OAK RIDGE      CLEAR     53  49  86 CALM      30.08S
CROSSVILLE     CLEAR     51  49  92 S3        30.09R
NASHVILLE      PTCLDY    58  55  90 SW3       30.05S
$$

...KEY TO REMARKS...
VSB - VISIBILITY IN MILES
WCI - WIND CHILL INDEX
HX  - HEAT INDEX

$$




USA.gov is the U.S. government's official web portal to all federal, state and local government web resources and services.